Regional Weather Roundup
Issued by NWS

Home | Current Version | Previous Version | Graphics & Text | Print | Product List | Glossary On
Versions: 1 2 3 4 5 6 7 8 9 10 11 12 13 14 15 16 17 18 19 20 21 22 23 24 25 26 27 28 29 30 31 32 33 34 35 36 37 38 39 40 41 42 43 44 45 46 47 48 49 50
000
ASUS43 KLSX 242159
RWRMO

WEATHER SUMMARY FOR MISSOURI
NATIONAL WEATHER SERVICE SPRINGFIELD MO
500 PM CDT FRI OCT 24 2014

NOTE: "FAIR" INDICATES FEW OR NO CLOUDS BELOW 12,000 FEET WITH NO
       SIGNIFICANT WEATHER AND/OR OBSTRUCTIONS TO VISIBILITY.
       CURRENT SKY AND/OR WEATHER CONDITIONS ARE NOT AVAILABLE FOR
       CHILLICOTHE AND FARMINGTON.

MOZ001>031-035>038-043-044-053-054-242300-
...NORTHERN AND WESTERN MISSOURI...

CITY           SKY/WX    TMP DP  RH WIND       PRES   REMARKS
KANSAS CTY INT PTSUNNY   75  64  68 SW15      29.93F
KANSAS C DTWN  MOSUNNY   77  62  59 SW10      29.93F
LEE`S SUMMIT   PTSUNNY   76  62  62 SW13      29.96F
ST JOSEPH      SUNNY     78  63  59 SW17      29.90F
KIRKSVILLE     PTSUNNY   71  61  70 S12       29.94F

$$
MOZ066>068-077>081-088>096-101>105-242300-
...SOUTHWEST MISSOURI...

CITY           SKY/WX    TMP DP  RH WIND       PRES   REMARKS
SPRINGFIELD    CLOUDY    73  60  63 SW9       30.05S
JOPLIN         PTSUNNY   73  61  65 S12       30.04S

$$
MOZ032>034-039>042-045>050-055>058-069>072-242300-
...CENTRAL MISSOURI...

CITY           SKY/WX    TMP DP  RH WIND       PRES   REMARKS
COLUMBIA       PTSUNNY   72  60  66 S13       29.99F
JEFFERSON CITY PTSUNNY   75  59  57 S9        29.99S
ROLLA          MOSUNNY   69  59  70 S9        30.02F
SEDALIA        MOSUNNY   74  60  61 SW13      29.99S
OSAGE BEACH    PTSUNNY   75  57  53 SW8       30.02S

$$
MOZ051-052-059>065-242300-
...EAST CENTRAL MISSOURI...

CITY           SKY/WX    TMP DP  RH WIND       PRES   REMARKS
ST LOUIS INTL  PTSUNNY   74  45  35 S6        30.02F
SPIRIT OF STL  MOSUNNY   73  48  41 SW7       30.00F
ST CHARLES     SUNNY     72  49  44 S7        30.00F

$$
MOZ072>076-082>087-097>100-106>115-242300-
...SOUTH CENTRAL AND SOUTHEAST MISSOURI...

CITY           SKY/WX    TMP DP  RH WIND       PRES   REMARKS
CAPE GIRARDEAU MOSUNNY   72  52  49 SW5       30.05F
FARMINGTON     SUNNY     73  46  38 CALM      30.06F
POPLAR BLUFF   SUNNY     72  52  49 W6        30.05F
WEST PLAINS    MOSUNNY   71  57  61 SW6       30.08S

$$



USA.gov is the U.S. government's official web portal to all federal, state and local government web resources and services.